Back to catalog

DELTA 1 DEB

AlivePO
NORAD 37645·DEBRIS·🇺🇸 United States

Launched Mar 5, 1978 from Vandenberg Space Force Base

Loading…

Next Passes (next 24 hours)

TLE

FreshSource: Space-Track

Epoch: Sep 13, 2026, 09:00 UTC

1 37645U 78026JG  26256.37540240  .00000108  00000-0  37175-4 0  9990
2 37645  98.7382 295.3384 0049668 219.5253 152.8087 14.54388664754318

Track DELTA 1 DEB in real time with AllMySat

Download on the App Store